Time,TemperatureF,DewpointF,PressureIn,WindDirection,WindDirectionDegrees,WindSpeedMPH,WindSpeedGustMPH,Humidity,HourlyPrecipIn,Conditions,Clouds,dailyrainin,SoftwareType,DateUTC
2013-03-21 00:00:00,20.3,17.8,30.03,NNW,328,6.0,13.0,90,0.00,,---,0.00,VWS V14.00,2013-03-21 04:00:00,
2013-03-21 00:30:00,20.1,16.3,30.02,NW,317,10.0,12.0,85,0.00,,---,0.00,VWS V14.00,2013-03-21 04:30:00,
2013-03-21 01:00:00,19.4,16.2,30.02,NW,307,8.0,12.0,87,0.00,,---,0.00,VWS V14.00,2013-03-21 05:00:00,
2013-03-21 01:30:00,19.1,16.4,30.02,WNW,296,6.0,10.0,89,0.00,,---,0.00,VWS V14.00,2013-03-21 05:30:00,
2013-03-21 02:00:00,18.7,16.3,30.02,WNW,284,4.0,9.0,90,0.00,,---,0.00,VWS V14.00,2013-03-21 06:00:00,
2013-03-21 02:30:00,18.8,15.8,30.01,WNW,282,5.0,9.0,88,0.00,,---,0.00,VWS V14.00,2013-03-21 06:30:00,
2013-03-21 03:00:00,18.3,15.6,30.01,West,278,7.0,10.0,89,0.00,,---,0.00,VWS V14.00,2013-03-21 07:00:00,
2013-03-21 03:30:00,17.8,14.9,30.01,WNW,300,4.0,8.0,88,0.00,,---,0.00,VWS V14.00,2013-03-21 07:30:00,
2013-03-21 04:00:00,17.3,14.1,30.01,WNW,284,4.0,7.0,87,0.00,,---,0.00,VWS V14.00,2013-03-21 08:00:00,
2013-03-21 04:30:00,16.8,13.9,30.00,WNW,301,5.0,8.0,88,0.00,,---,0.00,VWS V14.00,2013-03-21 08:30:00,
2013-03-21 05:00:00,16.6,13.4,30.00,West,278,5.0,7.0,87,0.00,,---,0.00,VWS V14.00,2013-03-21 09:00:00,
2013-03-21 05:30:00,16.6,13.4,29.99,West,281,5.0,8.0,87,0.00,,---,0.00,VWS V14.00,2013-03-21 09:30:00,
2013-03-21 06:00:00,17.0,13.8,30.00,WNW,285,5.0,10.0,87,0.00,,---,0.00,VWS V14.00,2013-03-21 10:00:00,
2013-03-21 06:30:00,17.0,13.8,30.00,West,281,6.0,9.0,87,0.00,,---,0.00,VWS V14.00,2013-03-21 10:30:00,
2013-03-21 07:00:00,17.0,13.8,30.00,WNW,287,6.0,10.0,87,0.00,,---,0.00,VWS V14.00,2013-03-21 11:00:00,
2013-03-21 07:30:00,16.9,13.7,30.00,West,280,6.0,9.0,87,0.00,,---,0.00,VWS V14.00,2013-03-21 11:30:00,
2013-03-21 08:00:00,17.0,13.8,30.00,West,264,6.0,9.0,87,0.00,,---,0.00,VWS V14.00,2013-03-21 12:00:00,
2013-03-21 08:30:00,17.7,14.8,30.01,WNW,287,7.0,12.0,88,0.00,,---,0.00,VWS V14.00,2013-03-21 12:30:00,
2013-03-21 09:00:00,18.1,15.1,30.01,WNW,291,9.0,13.0,88,0.00,,---,0.00,VWS V14.00,2013-03-21 13:00:00,
2013-03-21 09:30:00,19.2,16.2,30.01,WNW,284,9.0,12.0,88,0.00,,---,0.00,VWS V14.00,2013-03-21 13:30:00,
2013-03-21 10:00:00,20.8,17.5,30.01,WNW,290,13.0,15.0,87,0.00,,---,0.00,VWS V14.00,2013-03-21 14:00:00,
2013-03-21 10:30:00,22.7,18.9,30.01,NW,323,9.0,16.0,85,0.00,,---,0.00,VWS V14.00,2013-03-21 14:30:00,
2013-03-21 11:00:00,24.7,19.4,30.02,WNW,300,11.0,17.0,80,0.00,,---,0.00,VWS V14.00,2013-03-21 15:00:00,
2013-03-21 11:30:00,25.4,19.5,30.03,WNW,292,11.0,18.0,78,0.00,,---,0.00,VWS V14.00,2013-03-21 15:30:00,
2013-03-21 12:00:00,25.6,20.0,30.03,WNW,301,13.0,16.0,79,0.00,,---,0.00,VWS V14.00,2013-03-21 16:00:00,
2013-03-21 12:30:00,26.7,20.8,30.04,WNW,297,11.0,17.0,78,0.00,,---,0.00,VWS V14.00,2013-03-21 16:30:00,
2013-03-21 13:00:00,27.3,19.8,30.04,NW,308,12.0,16.0,73,0.00,,---,0.00,VWS V14.00,2013-03-21 17:00:00,
2013-03-21 13:30:00,27.2,19.4,30.05,NW,304,14.0,17.0,72,0.00,,---,0.00,VWS V14.00,2013-03-21 17:30:00,
2013-03-21 14:00:00,27.2,19.7,30.05,WNW,291,13.0,15.0,73,0.00,,---,0.00,VWS V14.00,2013-03-21 18:00:00,
2013-03-21 14:30:00,28.4,19.5,30.03,WNW,300,9.0,16.0,69,0.00,,---,0.00,VWS V14.00,2013-03-21 18:30:00,
2013-03-21 15:00:00,29.6,20.4,30.03,WNW,285,11.0,16.0,68,0.00,,---,0.00,VWS V14.00,2013-03-21 19:00:00,
2013-03-21 15:30:00,30.2,19.9,30.02,WNW,291,11.0,15.0,65,0.00,,---,0.00,VWS V14.00,2013-03-21 19:30:00,
2013-03-21 16:00:00,31.2,18.5,30.01,NW,313,6.0,15.0,59,0.00,,---,0.00,VWS V14.00,2013-03-21 20:00:00,
2013-03-21 16:30:00,31.6,21.2,30.01,NW,322,12.0,17.0,65,0.00,,---,0.00,VWS V14.00,2013-03-21 20:30:00,
2013-03-21 17:00:00,32.0,19.3,30.01,WNW,292,10.0,15.0,59,0.00,,---,0.00,VWS V14.00,2013-03-21 21:00:00,
2013-03-21 17:30:00,32.6,21.8,30.01,NNW,340,9.0,15.0,64,0.00,,---,0.00,VWS V14.00,2013-03-21 21:30:00,
2013-03-21 18:00:00,32.3,21.1,30.01,NNW,328,7.0,17.0,63,0.00,,---,0.00,VWS V14.00,2013-03-21 22:00:00,
2013-03-21 18:30:00,31.9,21.1,30.01,NW,316,6.0,16.0,64,0.00,,---,0.00,VWS V14.00,2013-03-21 22:30:00,
2013-03-21 19:00:00,31.5,21.8,30.02,NNW,328,8.0,15.0,67,0.00,,---,0.00,VWS V14.00,2013-03-21 23:00:00,
2013-03-21 19:30:00,30.8,21.1,30.02,NW,321,9.0,15.0,67,0.00,,---,0.00,VWS V14.00,2013-03-21 23:30:00,
2013-03-21 20:00:00,29.4,19.8,30.02,NW,323,8.0,14.0,67,0.00,,---,0.00,VWS V14.00,2013-03-22 00:00:00,
2013-03-21 20:30:00,28.9,20.4,30.02,NW,320,8.0,11.0,70,0.00,,---,0.00,VWS V14.00,2013-03-22 00:30:00,
2013-03-21 21:00:00,28.6,20.1,30.03,NNW,333,5.0,9.0,70,0.00,,---,0.00,VWS V14.00,2013-03-22 01:00:00,
2013-03-21 21:30:00,27.8,19.3,30.03,NNW,328,7.0,9.0,70,0.00,,---,0.00,VWS V14.00,2013-03-22 01:30:00,
2013-03-21 22:00:00,27.4,19.6,30.03,NW,307,6.0,9.0,72,0.00,,---,0.00,VWS V14.00,2013-03-22 02:00:00,
2013-03-21 22:30:00,26.9,19.4,30.04,NW,321,6.0,8.0,73,0.00,,---,0.00,VWS V14.00,2013-03-22 02:30:00,
2013-03-21 23:00:00,26.6,19.4,30.04,NNW,327,5.0,9.0,74,0.00,,---,0.00,VWS V14.00,2013-03-22 03:00:00,
2013-03-21 23:30:00,26.3,19.5,30.05,WNW,285,5.0,8.0,75,0.00,,---,0.00,VWS V14.00,2013-03-22 03:30:00,